FW0896 Weather Reports


time (UTC)temp
F
wind
direction
speed
knots
gust
knots
rain 1hr
in
rain 24hr
in
rain mn
in
humidity
%
barometer
mb
20260904090019 74 197 1.7 5.2 0.00 0.18 0.00 91 1009.1
20260904084518 74 195 1.7 5.2 0.00 0.25 0.00 91 1009.0
20260904083017 74 203 2.6 5.2 0.00 0.25 0.00 91 1009.0
20260904081516 74 209 1.7 4.3 0.00 0.25 0.00 91 1009.0
20260904080015 74 170 2.6 5.2 0.00 0.25 0.00 91 1009.0
20260904074531 74 191 2.6 5.2 0.00 0.25 0.00 92 1009.1
20260904073020 74 202 1.7 3.5 0.00 0.25 0.00 92 1009.1
20260904071513 74 211 1.7 2.6 0.00 0.25 0.00 94 1009.1
20260904070012 74 184 0.0 1.7 0.00 0.25 0.00 94 1009.2
20260904064516 74 185 0.9 2.6 0.00 0.25 0.00 94 1009.3
20260904063009 74 186 0.9 2.6 0.00 0.25 0.00 95 1009.4
20260904061508 74 177 0.0 0.0 0.00 0.25 0.00 94 1009.4
20260904060010 74 178 0.0 0.0 0.00 0.25 0.00 95 1009.4
20260904054511 74 179 0.0 1.7 0.00 0.25 0.00 95 1009.3
20260904053006 74 179 0.9 1.7 0.00 0.25 0.00 95 1009.2
20260904051501 75 178 0.9 1.7 0.00 0.25 0.00 94 1009.0
20260904050100 75 181 0.0 0.0 0.00 0.25 0.00 94 1009.0
20260904044608 75 179 0.0 0.0 0.00 0.25 0.25 93 1009.0
20260904043101 76 173 0.0 0.0 0.00 0.25 0.25 93 1009.1
20260904041603 76 173 0.0 0.0 0.00 0.25 0.25 93 1009.2
20260904040108 76 176 0.0 0.0 0.00 0.25 0.25 92 1009.1
20260904034607 76 176 0.0 0.0 0.00 0.25 0.25 92 1009.1
20260904033101 77 178 0.0 0.0 0.00 0.25 0.25 91 1009.2
20260904031556 77 178 0.0 0.0 0.00 0.25 0.25 91 1009.2
20260904030055 77 179 0.0 0.0 0.00 0.25 0.25 90 1009.1
20260904024555 77 179 0.0 0.0 0.00 0.25 0.25 90 1009.2
20260904023055 78 179 0.0 0.0 0.00 0.25 0.25 89 1009.1
20260904021603 78 179 0.0 0.0 0.00 0.25 0.25 89 1009.0
20260904020053 78 181 0.0 1.7 0.00 0.25 0.25 89 1008.7
20260904014628 79 182 0.9 4.3 0.00 0.25 0.25 89 1008.5
20260904013053 80 172 0.0 1.7 0.00 0.25 0.25 87 1008.3
20260904011556 80 186 0.0 1.7 0.00 0.25 0.25 86 1008.2
20260904010100 81 186 0.0 0.9 0.00 0.25 0.25 85 1008.3
20260904004554 81 186 0.0 0.9 0.00 0.25 0.25 85 1008.2
20260904003059 81 188 0.0 0.9 0.00 0.25 0.25 84 1008.3
20260904001550 82 177 0.0 0.9 0.00 0.25 0.25 83 1008.1
20260904000048 82 172 0.0 0.9 0.00 0.25 0.25 82 1008.0
20260903234547 82 188 0.0 3.5 0.00 0.25 0.25 82 1008.0
20260903233101 82 186 1.7 4.3 0.00 0.25 0.25 81 1008.0
20260903231547 82 200 1.7 5.2 0.00 0.25 0.25 79 1008.0
20260903230052 83 217 2.6 6.1 0.00 0.25 0.25 77 1007.7
20260903224545 85 164 3.5 9.6 0.00 0.25 0.25 73 1007.3
20260903223053 85 226 6.1 10.4 0.00 0.25 0.25 71 1007.4
20260903221544 85 212 10.4 14.8 0.00 0.25 0.25 71 1007.5
20260903220106 85 243 7.8 12.2 0.00 0.25 0.25 72 1007.2
20260903214542 85 184 3.5 11.3 0.00 0.25 0.25 74 1007.0
20260903213042 84 246 7.0 16.5 0.00 0.25 0.25 73 1007.8
20260903211542 85 229 9.6 13.9 0.00 0.25 0.25 71 1007.7
20260903210040 86 299 4.3 15.6 0.00 0.25 0.25 72 1007.2
20260903204539 86 238 7.0 12.2 0.00 0.25 0.25 70 1007.7
20260903203045 86 191 7.8 13.9 0.00 0.25 0.25 71 1007.8
20260903201538 86 240 4.3 11.3 0.00 0.25 0.25 71 1007.5
20260903200034 84 185 4.3 13.0 0.00 0.25 0.25 72 1007.5
20260903194532 85 246 4.3 13.0 0.00 0.25 0.25 71 1007.7
20260903193031 84 173 3.5 9.6 0.00 0.25 0.25 72 1007.9
20260903191528 83 174 6.1 12.2 0.00 0.25 0.25 71 1007.8
20260903190027 83 191 4.3 14.8 0.00 0.25 0.25 72 1007.8
20260903184524 82 130 3.5 10.4 0.00 0.25 0.25 73 1007.9
20260903183022 82 150 3.5 12.2 0.00 0.25 0.25 75 1008.4
20260903181520 81 207 4.3 11.3 0.00 0.25 0.25 77 1008.4
20260903180017 80 150 5.2 15.6 0.00 0.25 0.25 77 1008.3
20260903174517 79 185 4.3 13.0 0.00 0.25 0.25 76 1008.2
20260903173115 79 164 5.2 11.3 0.00 0.25 0.25 78 1008.4
20260903171525 78 162 3.5 8.7 0.00 0.25 0.25 79 1007.9
20260903170028 78 167 2.6 12.2 0.00 0.25 0.25 80 1008.5
20260903164511 78 184 5.2 12.2 0.00 0.25 0.25 77 1008.6
20260903163015 80 157 3.5 13.0 0.00 0.25 0.25 76 1009.4
20260903161504 79 188 5.2 11.3 0.00 0.25 0.25 78 1009.8
20260903160004 78 184 4.3 11.3 0.00 0.25 0.25 79 1010.2
20260903154600 77 153 5.2 12.2 0.00 0.25 0.25 80 1009.7
20260903153056 75 213 3.5 7.8 0.00 0.25 0.25 85 1009.5
20260903151556 75 167 3.5 10.4 0.00 0.25 0.25 85 1010.0
20260903150108 74 150 2.6 6.1 0.00 0.25 0.25 87 1009.9
20260903144552 72 179 2.6 5.2 0.00 0.25 0.25 88 1010.0
20260903143051 71 161 3.5 6.1 0.00 0.25 0.25 90 1009.8
20260903141550 71 167 1.7 4.3 0.00 0.25 0.25 93 1009.7
20260903140051 70 162 2.6 4.3 0.08 0.25 0.25 95 1010.1
20260903134602 69 143 1.7 3.5 0.08 0.25 0.25 95 1010.2
20260903133049 69 158 1.7 3.5 0.08 0.25 0.25 94 1010.6
20260903131549 69 106 0.0 2.6 0.08 0.25 0.25 93 1010.8
20260903130053 70 138 0.9 2.6 0.00 0.17 0.17 92 1010.5
20260903124555 70 117 1.7 4.3 0.00 0.17 0.17 92 1010.0
20260903123048 69 148 1.7 3.5 0.01 0.17 0.17 93 1010.0
20260903121552 69 166 1.7 3.5 0.06 0.17 0.17 94 1010.0
20260903120054 68 156 1.7 3.5 0.08 0.17 0.17 94 1010.0
20260903114548 69 181 1.7 3.5 0.09 0.17 0.17 94 1010.1
20260903113051 69 162 1.7 6.1 0.08 0.16 0.16 93 1010.1
20260903111545 70 120 1.7 3.5 0.03 0.11 0.11 92 1010.6
20260903110043 70 117 1.7 4.3 0.01 0.09 0.09 91 1010.7
20260903104541 72 191 0.0 5.2 0.00 0.08 0.08 88 1011.2
20260903103041 71 217 1.7 7.0 0.00 0.08 0.08 89 1011.5
20260903101540 70 245 3.5 7.0 0.00 0.08 0.08 90 1011.0
20260903100040 72 174 2.6 9.6 0.01 0.08 0.08 87 1010.8
20260903094549 70 218 2.6 7.8 0.03 0.08 0.08 90 1010.7
20260903093037 69 169 0.9 3.5 0.08 0.08 0.08 93 1011.2
20260903091534 70 221 3.5 6.1 0.08 0.08 0.08 91 1011.7